{"data":{"norad_id":67116,"intl_designator":"2025-299Q","name":"STARLINK-35738","alt_names":[],"object_type":"PAYLOAD","status":"ACTIVE","operator":null,"country":"US","launch_date":"2025-12-15","launch_site_code":"AFETR","launch_vehicle":null,"mission":null,"orbit_class":"UNKNOWN","rcs_meters":null,"size_class":null,"mass_kg":null,"dimensions":null,"purposes":["comms"],"wikipedia_slug":null,"has_3d_model":false,"image_url":null,"decayed_at":null,"tle_current":{"epoch":"2026-09-20T02:29:59.393760Z","epoch_age_seconds":113259,"freshness":"FRESH","line1":"1 67116U 25299Q   26263.10415965  .00013840  00000+0  51089-3 0  9999","line2":"2 67116  42.9998 150.6731 0002520 250.2594 109.7986 15.27618347 42856","mean_motion":15.27618347,"eccentricity":0.000252,"inclination_deg":42.9998,"raan_deg":150.6731,"arg_perigee_deg":250.2594,"mean_anomaly_deg":109.7986,"bstar":0.00051089,"rev_number":4285,"period_min":94.264382385033,"perigee_km":481.20528376741,"apogee_km":484.66326368936,"semimajor_km":6861.0712737284,"source":"CELESTRAK","updated_at":"2026-09-21T09:00:36.106501Z"}}}